timestamp,wind_dir_avg,wind_spd_avg,wind_spd_max_dir,wind_spd_gust,battery_voltage,lat,long
2024-04-09 00:04:00+00:00,37.0,12.87,36.0,15.91,12.41,47.59359,-54.27349
2024-04-09 00:14:00+00:00,38.0,13.32,44.0,15.37,12.17,47.59359,-54.27349
2024-04-09 00:24:00+00:00,35.0,13.2,35.0,14.73,12.17,47.59359,-54.27349
2024-04-09 00:34:00+00:00,38.0,11.93,41.0,13.72,12.17,47.59359,-54.27349
2024-04-09 00:44:00+00:00,38.0,12.38,39.0,14.84,12.17,47.59359,-54.27349
2024-04-09 00:54:00+00:00,29.0,12.18,29.0,13.41,12.17,47.59359,-54.27349
2024-04-09 01:04:00+00:00,30.0,12.43,32.0,13.81,12.17,47.59359,-54.27349
2024-04-09 01:14:00+00:00,30.0,13.79,32.0,15.47,12.17,47.59359,-54.27349
2024-04-09 01:24:00+00:00,30.0,12.31,30.0,13.17,12.17,47.59359,-54.27349
2024-04-09 01:34:00+00:00,27.0,13.38,25.0,14.95,12.17,47.59359,-54.27349
2024-04-09 01:44:00+00:00,33.0,12.25,30.0,14.04,12.17,47.59359,-54.27349
2024-04-09 01:54:00+00:00,34.0,13.5,34.0,15.34,12.17,47.59359,-54.27349
2024-04-09 02:04:00+00:00,30.0,12.25,32.0,12.83,12.17,47.59359,-54.27349
2024-04-09 02:14:00+00:00,27.0,12.95,22.0,14.13,12.17,47.59359,-54.27349
2024-04-09 02:24:00+00:00,32.0,13.37,32.0,15.23,12.17,47.59359,-54.27349
2024-04-09 02:34:00+00:00,32.0,12.35,35.0,14.07,12.17,47.59359,-54.27349
2024-04-09 02:44:00+00:00,35.0,13.13,34.0,14.73,12.17,47.59359,-54.27349
2024-04-09 02:54:00+00:00,28.0,12.11,26.0,13.16,12.17,47.59359,-54.27349
2024-04-09 03:04:00+00:00,5.0,9.74,5.0,10.95,12.17,47.59359,-54.27349
2024-04-09 03:14:00+00:00,315.0,0.01,22.0,0.0,12.17,47.59359,-54.27349
2024-04-09 03:24:00+00:00,5.0,9.37,1.0,11.16,12.17,47.59359,-54.27349
2024-04-09 03:34:00+00:00,6.0,9.01,6.0,10.56,12.17,47.59359,-54.27349
2024-04-09 03:44:00+00:00,6.0,8.66,3.0,10.41,12.17,47.59359,-54.27349
2024-04-09 03:54:00+00:00,11.0,8.12,12.0,8.64,12.17,47.59359,-54.27349
2024-04-09 04:04:00+00:00,4.0,8.23,3.0,9.2,12.17,47.59359,-54.27349
2024-04-09 04:14:00+00:00,7.0,8.62,8.0,10.09,12.09,47.59359,-54.27349
2024-04-09 04:24:00+00:00,4.0,9.57,0.0,11.05,12.09,47.59359,-54.27349
2024-04-09 04:34:00+00:00,8.0,8.81,10.0,11.39,12.09,47.59359,-54.27349
2024-04-09 04:44:00+00:00,8.0,8.07,9.0,9.46,12.09,47.59359,-54.27349
2024-04-09 04:54:00+00:00,6.0,8.86,2.0,10.45,12.09,47.59359,-54.27349
2024-04-09 05:04:00+00:00,7.0,8.97,5.0,10.2,12.09,47.59359,-54.27349
2024-04-09 05:14:00+00:00,6.0,9.61,7.0,11.31,12.09,47.59359,-54.27349
2024-04-09 05:24:00+00:00,5.0,9.04,1.0,10.69,12.09,47.59359,-54.27349
2024-04-09 05:34:00+00:00,4.0,9.86,5.0,11.87,12.09,47.59359,-54.27349
2024-04-09 05:44:00+00:00,5.0,9.07,5.0,10.73,12.09,47.59359,-54.27349
2024-04-09 05:54:00+00:00,5.0,10.15,357.0,12.58,12.09,47.59359,-54.27349
2024-04-09 06:04:00+00:00,8.0,8.93,12.0,10.39,12.09,47.59359,-54.27349
2024-04-09 06:14:00+00:00,7.0,10.7,6.0,11.66,12.09,47.59359,-54.27349
2024-04-09 06:24:00+00:00,7.0,10.85,7.0,12.13,12.09,47.59359,-54.27349
2024-04-09 06:34:00+00:00,5.0,9.94,4.0,11.54,12.09,47.59359,-54.27349
2024-04-09 06:44:00+00:00,10.0,10.07,10.0,11.13,12.09,47.59359,-54.27349
2024-04-09 06:54:00+00:00,9.0,10.0,8.0,12.27,12.09,47.59359,-54.27349
2024-04-09 07:04:00+00:00,6.0,10.63,6.0,12.59,12.09,47.59359,-54.27349
2024-04-09 07:14:01+00:00,5.0,11.18,1.0,12.78,12.01,47.59359,-54.27349
2024-04-09 07:24:01+00:00,9.0,10.95,11.0,13.28,12.01,47.59359,-54.27349
2024-04-09 07:34:01+00:00,10.0,8.89,9.0,10.37,12.01,47.59359,-54.27349
2024-04-09 07:44:01+00:00,5.0,9.59,3.0,11.22,12.01,47.59359,-54.27349
2024-04-09 07:54:01+00:00,1.0,10.48,3.0,11.65,12.01,47.59359,-54.27349
2024-04-09 08:04:01+00:00,1.0,10.59,1.0,11.78,12.01,47.59359,-54.27349
2024-04-09 08:14:01+00:00,2.0,9.06,1.0,10.48,12.01,47.59359,-54.27349
2024-04-09 08:24:01+00:00,5.0,10.03,10.0,10.89,12.01,47.59359,-54.27349
2024-04-09 08:34:01+00:00,6.0,9.08,2.0,10.92,12.01,47.59359,-54.27349
2024-04-09 08:44:01+00:00,2.0,9.04,356.0,10.58,12.01,47.59359,-54.27349
2024-04-09 08:54:01+00:00,8.0,9.54,3.0,11.49,12.01,47.59359,-54.27349
2024-04-09 09:04:01+00:00,7.0,9.07,7.0,10.33,12.01,47.59359,-54.27349
2024-04-09 09:14:00+00:00,10.0,9.11,6.0,10.91,11.93,47.59359,-54.27349
2024-04-09 09:24:00+00:00,10.0,8.92,10.0,10.53,11.93,47.59359,-54.27349
2024-04-09 09:34:00+00:00,7.0,10.48,9.0,11.82,11.93,47.59359,-54.27349
2024-04-09 09:44:00+00:00,11.0,10.13,8.0,10.92,11.93,47.59359,-54.27349
2024-04-09 09:54:00+00:00,11.0,9.62,9.0,11.15,11.93,47.59359,-54.27349
2024-04-09 10:04:00+00:00,8.0,9.14,359.0,10.86,11.93,47.59359,-54.27349
2024-04-09 10:14:00+00:00,7.0,9.68,4.0,11.63,12.17,47.59359,-54.27349
2024-04-09 10:24:00+00:00,8.0,13.82,9.0,14.34,12.17,47.59359,-54.27349
2024-04-09 10:34:00+00:00,17.0,13.28,21.0,13.66,12.17,47.59359,-54.27349
2024-04-09 10:44:00+00:00,8.0,9.57,10.0,11.0,12.17,47.59359,-54.27349
2024-04-09 10:54:00+00:00,5.0,10.68,1.0,12.22,12.17,47.59359,-54.27349
2024-04-09 11:04:00+00:00,10.0,10.9,12.0,12.8,12.17,47.59359,-54.27349
2024-04-09 11:14:00+00:00,12.0,12.54,6.0,14.59,12.89,47.59359,-54.27349
2024-04-09 11:24:00+00:00,10.0,11.55,15.0,13.25,12.89,47.59359,-54.27349
2024-04-09 11:34:00+00:00,9.0,10.84,12.0,13.31,12.89,47.59359,-54.27349
2024-04-09 11:44:00+00:00,14.0,13.28,10.0,15.35,12.89,47.59359,-54.27349
2024-04-09 11:54:00+00:00,12.0,12.01,18.0,14.01,12.89,47.59359,-54.27349
2024-04-09 12:04:00+00:00,6.0,11.55,3.0,14.05,12.89,47.59359,-54.27349
2024-04-09 12:14:00+00:00,11.0,12.82,18.0,15.07,13.53,47.59359,-54.27349
2024-04-09 12:24:00+00:00,12.0,12.53,16.0,14.16,13.53,47.59359,-54.27349
2024-04-09 12:34:00+00:00,10.0,12.12,13.0,13.91,13.53,47.59359,-54.27349
2024-04-09 12:44:00+00:00,10.0,10.17,11.0,11.92,13.53,47.59359,-54.27349
2024-04-09 12:54:00+00:00,11.0,13.85,13.0,16.7,13.53,47.59359,-54.27349
2024-04-09 13:04:00+00:00,3.0,13.47,6.0,15.96,13.53,47.59359,-54.27349
2024-04-09 13:14:01+00:00,9.0,14.1,20.0,15.92,13.53,47.59359,-54.27349
2024-04-09 13:24:01+00:00,3.0,10.28,358.0,12.13,13.53,47.59359,-54.27349
2024-04-09 13:34:01+00:00,12.0,10.86,9.0,13.1,13.53,47.59359,-54.27349
2024-04-09 13:44:01+00:00,11.0,11.89,22.0,14.36,13.53,47.59359,-54.27349
2024-04-09 13:54:01+00:00,352.0,13.45,356.0,14.95,13.53,47.59359,-54.27349
2024-04-09 14:04:01+00:00,4.0,12.37,19.0,14.78,13.53,47.59359,-54.27349
2024-04-09 14:14:00+00:00,6.0,11.73,8.0,14.23,13.68,47.59359,-54.27349
2024-04-09 14:24:00+00:00,5.0,13.08,13.0,14.98,13.68,47.59359,-54.27349
2024-04-09 14:34:00+00:00,1.0,13.28,5.0,15.0,13.68,47.59359,-54.27349
2024-04-09 14:44:00+00:00,358.0,11.65,358.0,13.41,13.68,47.59359,-54.27349
2024-04-09 14:54:00+00:00,11.0,13.33,15.0,16.0,13.68,47.59359,-54.27349
2024-04-09 15:04:00+00:00,17.0,12.23,18.0,14.0,13.68,47.59359,-54.27349
2024-04-09 15:14:00+00:00,14.0,9.56,22.0,11.2,13.6,47.59359,-54.27349
2024-04-09 15:24:00+00:00,14.0,12.03,16.0,13.28,13.6,47.59359,-54.27349
2024-04-09 15:34:00+00:00,357.0,11.35,359.0,13.72,13.6,47.59359,-54.27349
2024-04-09 15:44:00+00:00,359.0,12.33,358.0,14.64,13.6,47.59359,-54.27349
2024-04-09 15:54:00+00:00,358.0,12.25,359.0,13.64,13.6,47.59359,-54.27349
2024-04-09 16:04:00+00:00,2.0,10.94,4.0,13.23,13.6,47.59359,-54.27349
2024-04-09 16:14:00+00:00,2.0,9.87,352.0,11.4,13.53,47.59359,-54.27349
2024-04-09 16:24:00+00:00,14.0,11.08,15.0,13.0,13.53,47.59359,-54.27349
2024-04-09 16:34:00+00:00,17.0,12.08,19.0,13.6,13.53,47.59359,-54.27349
2024-04-09 16:44:00+00:00,10.0,13.19,3.0,15.71,13.53,47.59359,-54.27349
2024-04-09 16:54:00+00:00,5.0,11.82,0.0,14.5,13.53,47.59359,-54.27349
2024-04-09 17:04:00+00:00,6.0,10.26,7.0,12.59,13.53,47.59359,-54.27349
2024-04-09 17:14:00+00:00,2.0,11.3,1.0,12.56,13.53,47.59359,-54.27349
2024-04-09 17:24:00+00:00,5.0,8.99,3.0,11.15,13.53,47.59359,-54.27349
2024-04-09 17:34:00+00:00,14.0,12.58,12.0,14.87,13.53,47.59359,-54.27349
2024-04-09 17:44:00+00:00,26.0,10.69,33.0,12.73,13.53,47.59359,-54.27349
2024-04-09 17:54:00+00:00,10.0,12.91,10.0,15.78,13.53,47.59359,-54.27349
2024-04-09 18:04:00+00:00,8.0,10.79,7.0,12.65,13.53,47.59359,-54.27349
2024-04-09 18:14:00+00:00,18.0,10.47,21.0,13.4,13.6,47.59359,-54.27349
2024-04-09 18:24:00+00:00,10.0,10.75,15.0,12.77,13.6,47.59359,-54.27349
2024-04-09 18:34:00+00:00,17.0,11.1,18.0,12.35,13.6,47.59359,-54.27349
2024-04-09 18:44:00+00:00,16.0,11.34,14.0,12.57,13.6,47.59359,-54.27349
2024-04-09 18:54:00+00:00,21.0,9.56,25.0,11.45,13.6,47.59359,-54.27349
2024-04-09 19:04:00+00:00,22.0,9.67,22.0,10.89,13.6,47.59359,-54.27349
2024-04-09 19:14:00+00:00,22.0,11.03,20.0,12.93,13.53,47.59359,-54.27349
2024-04-09 19:24:00+00:00,23.0,11.96,29.0,14.55,13.53,47.59359,-54.27349
2024-04-09 19:34:00+00:00,8.0,11.23,5.0,13.76,13.53,47.59359,-54.27349
2024-04-09 19:44:00+00:00,11.0,12.56,14.0,15.26,13.53,47.59359,-54.27349
2024-04-09 19:54:00+00:00,3.0,14.75,1.0,17.48,13.53,47.59359,-54.27349
2024-04-09 20:04:00+00:00,5.0,12.25,1.0,14.62,13.53,47.59359,-54.27349
2024-04-09 20:14:01+00:00,0.0,13.4,2.0,14.81,13.44,47.59359,-54.27349
2024-04-09 20:24:01+00:00,352.0,11.56,356.0,13.82,13.44,47.59359,-54.27349
2024-04-09 20:34:01+00:00,2.0,11.97,3.0,13.74,13.44,47.59359,-54.27349
2024-04-09 20:44:01+00:00,0.0,9.56,357.0,11.75,13.44,47.59359,-54.27349
2024-04-09 20:54:01+00:00,2.0,13.41,2.0,15.38,13.44,47.59359,-54.27349
2024-04-09 21:04:01+00:00,352.0,9.98,348.0,11.46,13.44,47.59359,-54.27349
2024-04-09 21:14:01+00:00,358.0,8.78,0.0,10.8,13.29,47.59359,-54.27349
2024-04-09 21:24:01+00:00,357.0,11.53,3.0,13.01,13.29,47.59359,-54.27349
2024-04-09 21:34:01+00:00,352.0,11.21,350.0,13.88,13.29,47.59359,-54.27349
2024-04-09 21:44:01+00:00,6.0,11.51,6.0,13.44,13.29,47.59359,-54.27349
2024-04-09 21:54:01+00:00,10.0,10.7,14.0,13.0,13.29,47.59359,-54.27349
2024-04-09 22:04:01+00:00,10.0,10.15,13.0,12.06,13.29,47.59359,-54.27349
2024-04-09 22:14:00+00:00,16.0,10.93,17.0,12.47,12.73,47.59359,-54.27349
2024-04-09 22:24:00+00:00,15.0,11.01,17.0,12.67,12.73,47.59359,-54.27349
2024-04-09 22:34:00+00:00,9.0,11.55,4.0,13.39,12.73,47.59359,-54.27349
2024-04-09 22:44:00+00:00,11.0,10.21,9.0,12.84,12.73,47.59359,-54.27349
2024-04-09 22:54:00+00:00,9.0,9.53,11.0,11.87,12.73,47.59359,-54.27349
2024-04-09 23:04:00+00:00,1.0,10.72,6.0,11.93,12.73,47.59359,-54.27349
2024-04-09 23:14:00+00:00,357.0,9.83,354.0,11.78,12.25,47.59359,-54.27349
2024-04-09 23:24:00+00:00,358.0,10.3,353.0,12.33,12.25,47.59359,-54.27349
2024-04-09 23:34:00+00:00,0.0,11.58,9.0,12.8,12.25,47.59359,-54.27349
2024-04-09 23:44:00+00:00,7.0,11.02,7.0,12.34,12.25,47.59359,-54.27349
2024-04-09 23:54:00+00:00,356.0,9.11,358.0,10.97,12.25,47.59359,-54.27349
